Orbital Elements at Epoch 2459000.5 (2020-May-31.0) TDB
Reference: JPL 16 (heliocentric ecliptic J2000)
Element | Value | Uncertainty (1-sigma) | Units |
e | .1759393575871973 | 4.155e-08 | |
a | 2.303071464798205 | 1.038e-08 | au |
q | 1.897870550804204 | 9.6921e-08 | au |
i | 1.715776749905711 | 5.8123e-06 | deg |
node | 343.6274808631491 | 0.00015532 | deg |
peri | 308.0127877894638 | 0.00015615 | deg |
M | 74.39679741069654 | 1.7116e-05 | deg |
tp | 2458736.677829853485 (2019-Sep-10.17782985) | 6.0516e-05 | TDB |
period | 1276.613840357193 3.50 | 8.6307e-06 2.363e-08 | d yr |
n | .2819960027217572 | 1.9065e-09 | deg/d |
Q | 2.708272378792207 | 1.2206e-08 | au |
|
| | Orbit Determination Parameters
Additional Information
|